TimeEDT,TemperatureF,Dew PointF,Humidity,Sea Level PressureIn,VisibilityMPH,Wind Direction,Wind SpeedMPH,Gust SpeedMPH,PrecipitationIn,Events,Conditions,WindDirDegrees,DateUTC
12:15 AM,39.2,33.8,81,30.13,10.0,ESE,10.4,-,N/A,,Overcast,110,2013-04-23 04:15:00
12:35 AM,39.2,33.8,81,30.13,10.0,ESE,11.5,-,N/A,,Overcast,120,2013-04-23 04:35:00
12:55 AM,39.2,33.8,81,30.12,10.0,ESE,10.4,-,N/A,,Overcast,110,2013-04-23 04:55:00
1:15 AM,37.4,33.8,87,30.12,10.0,ESE,10.4,-,N/A,,Overcast,110,2013-04-23 05:15:00
1:35 AM,37.4,33.8,87,30.11,10.0,ESE,10.4,-,N/A,,Overcast,110,2013-04-23 05:35:00
1:55 AM,37.4,33.8,87,30.11,10.0,ESE,10.4,-,N/A,,Overcast,110,2013-04-23 05:55:00
2:15 AM,37.4,33.8,87,30.10,10.0,ESE,10.4,-,N/A,,Overcast,110,2013-04-23 06:15:00
2:35 AM,37.4,33.8,87,30.09,10.0,ESE,11.5,-,N/A,,Overcast,110,2013-04-23 06:35:00
2:55 AM,37.4,33.8,87,30.08,10.0,ESE,10.4,-,N/A,,Overcast,110,2013-04-23 06:55:00
3:15 AM,37.4,33.8,87,30.08,10.0,ESE,10.4,-,N/A,,Scattered Clouds,110,2013-04-23 07:15:00
3:35 AM,37.4,33.8,87,30.07,10.0,ESE,10.4,-,N/A,,Clear,110,2013-04-23 07:35:00
3:55 AM,37.4,33.8,87,30.06,10.0,ESE,10.4,-,N/A,,Clear,110,2013-04-23 07:55:00
4:15 AM,35.6,33.8,93,30.05,10.0,ESE,10.4,-,N/A,,Clear,110,2013-04-23 08:15:00
4:35 AM,35.6,33.8,93,30.04,10.0,ESE,10.4,-,N/A,,Clear,110,2013-04-23 08:35:00
4:55 AM,35.6,33.8,93,30.03,10.0,ESE,10.4,-,N/A,,Clear,110,2013-04-23 08:55:00
5:15 AM,35.6,33.8,93,30.01,10.0,ESE,11.5,-,N/A,,Clear,110,2013-04-23 09:15:00
5:35 AM,35.6,33.8,93,30.00,10.0,ESE,11.5,-,N/A,,Clear,110,2013-04-23 09:35:00
5:55 AM,35.6,33.8,93,29.99,10.0,ESE,12.7,-,N/A,,Clear,110,2013-04-23 09:55:00
6:15 AM,35.6,33.8,93,29.98,10.0,ESE,11.5,-,N/A,,Clear,110,2013-04-23 10:15:00
6:35 AM,35.6,33.8,93,29.97,10.0,ESE,11.5,-,N/A,,Clear,110,2013-04-23 10:35:00
6:55 AM,35.6,33.8,93,29.96,10.0,ESE,9.2,-,N/A,,Clear,120,2013-04-23 10:55:00
7:15 AM,35.6,33.8,93,29.95,10.0,ESE,9.2,-,N/A,,Clear,110,2013-04-23 11:15:00
7:35 AM,35.6,33.8,93,29.95,10.0,ESE,8.1,-,N/A,,Clear,110,2013-04-23 11:35:00
7:55 AM,37.4,33.8,87,29.94,10.0,ESE,8.1,-,N/A,,Clear,110,2013-04-23 11:55:00
8:15 AM,37.4,33.8,87,29.93,10.0,ESE,11.5,-,N/A,,Partly Cloudy,110,2013-04-23 12:15:00
8:35 AM,37.4,33.8,87,29.92,10.0,ESE,10.4,-,N/A,,Scattered Clouds,110,2013-04-23 12:35:00
8:55 AM,37.4,33.8,87,29.91,10.0,ESE,12.7,-,N/A,,Scattered Clouds,110,2013-04-23 12:55:00
9:15 AM,39.2,33.8,81,29.92,10.0,ESE,10.4,-,N/A,,Mostly Cloudy,110,2013-04-23 13:15:00
9:35 AM,39.2,35.6,87,29.92,10.0,ESE,10.4,-,N/A,,Overcast,120,2013-04-23 13:35:00
9:55 AM,41.0,35.6,81,29.91,10.0,ESE,12.7,-,N/A,,Scattered Clouds,110,2013-04-23 13:55:00
10:15 AM,42.8,35.6,76,29.90,10.0,ESE,12.7,-,N/A,,Scattered Clouds,120,2013-04-23 14:15:00
10:35 AM,41.0,35.6,81,29.91,10.0,SE,11.5,-,N/A,,Overcast,140,2013-04-23 14:35:00
10:55 AM,39.2,37.4,93,29.90,9.0,ESE,12.7,-,N/A,,Overcast,120,2013-04-23 14:55:00
11:15 AM,39.2,37.4,93,29.88,10.0,ESE,10.4,-,0.01,,Overcast,120,2013-04-23 15:15:00
11:35 AM,39.2,39.2,100,29.89,8.0,ESE,10.4,-,0.04,,Overcast,120,2013-04-23 15:35:00
11:55 AM,39.2,39.2,100,29.88,9.0,SE,6.9,-,N/A,,Overcast,130,2013-04-23 15:55:00
12:15 PM,39.2,37.4,93,29.87,7.0,SE,5.8,-,N/A,,Overcast,130,2013-04-23 16:15:00
12:35 PM,39.2,37.4,93,29.86,8.0,ESE,8.1,-,N/A,,Overcast,120,2013-04-23 16:35:00
12:55 PM,39.2,39.2,100,29.85,10.0,ESE,10.4,-,N/A,,Overcast,120,2013-04-23 16:55:00
1:15 PM,41.0,39.2,93,29.85,10.0,SE,9.2,-,N/A,,Overcast,140,2013-04-23 17:15:00
1:35 PM,42.8,39.2,87,29.84,10.0,SSE,10.4,-,N/A,,Overcast,150,2013-04-23 17:35:00
1:55 PM,42.8,41.0,93,29.84,10.0,SSE,8.1,-,N/A,,Overcast,150,2013-04-23 17:55:00
2:15 PM,44.6,42.8,93,29.84,10.0,South,5.8,-,N/A,,Overcast,170,2013-04-23 18:15:00
2:35 PM,48.2,44.6,87,29.83,10.0,South,6.9,-,N/A,,Overcast,190,2013-04-23 18:35:00
2:55 PM,46.4,44.6,93,29.84,10.0,WSW,9.2,-,N/A,,Overcast,240,2013-04-23 18:55:00
3:15 PM,44.6,42.8,93,29.83,9.0,WSW,5.8,-,N/A,,Overcast,240,2013-04-23 19:15:00
3:35 PM,42.8,42.8,100,29.84,5.0,WSW,8.1,-,0.01,,Overcast,250,2013-04-23 19:35:00
3:55 PM,41.0,39.2,93,29.84,3.0,West,8.1,-,0.03,,Overcast,270,2013-04-23 19:55:00
4:15 PM,41.0,41.0,100,29.84,3.0,West,10.4,-,0.03,,Overcast,280,2013-04-23 20:15:00
4:35 PM,39.2,39.2,100,29.85,4.0,West,10.4,-,0.06,,Overcast,270,2013-04-23 20:35:00
4:55 PM,37.4,35.6,93,29.85,8.0,NW,12.7,-,0.10,,Overcast,320,2013-04-23 20:55:00
5:15 PM,37.4,37.4,100,29.85,10.0,NW,9.2,-,0.02,,Overcast,310,2013-04-23 21:15:00
5:35 PM,37.4,37.4,100,29.86,10.0,NW,9.2,-,0.04,,Overcast,320,2013-04-23 21:35:00
5:55 PM,35.6,35.6,100,29.87,10.0,NW,12.7,-,0.06,,Overcast,310,2013-04-23 21:55:00
6:15 PM,35.6,35.6,100,29.86,9.0,NW,15.0,19.6,0.01,,Overcast,310,2013-04-23 22:15:00
6:35 PM,33.8,33.8,100,29.87,4.0,NW,13.8,19.6,0.01,,Overcast,310,2013-04-23 22:35:00
6:55 PM,33.8,32.0,93,29.87,3.0,NW,10.4,-,0.02,,Overcast,310,2013-04-23 22:55:00
7:15 PM,33.8,33.8,100,29.87,2.5,NW,10.4,-,N/A,,Overcast,310,2013-04-23 23:15:00
7:35 PM,33.8,33.8,100,29.87,2.5,WNW,9.2,-,N/A,,Overcast,290,2013-04-23 23:35:00
7:55 PM,33.8,33.8,100,29.88,2.0,WNW,10.4,-,N/A,,Overcast,290,2013-04-23 23:55:00
8:15 PM,33.8,33.8,100,29.88,4.0,WNW,13.8,17.3,N/A,,Overcast,300,2013-04-24 00:15:00
8:35 PM,33.8,33.8,100,29.88,3.0,WNW,10.4,16.1,N/A,,Overcast,300,2013-04-24 00:35:00
8:55 PM,33.8,32.0,93,29.87,7.0,WNW,9.2,-,N/A,,Overcast,300,2013-04-24 00:55:00
9:15 PM,32.0,32.0,100,29.87,10.0,WNW,12.7,-,N/A,,Overcast,300,2013-04-24 01:15:00
9:35 PM,32.0,32.0,100,29.87,10.0,WNW,11.5,-,N/A,,Overcast,290,2013-04-24 01:35:00
9:55 PM,32.0,32.0,100,29.88,10.0,WNW,12.7,-,N/A,,Overcast,290,2013-04-24 01:55:00
10:15 PM,32.0,32.0,100,29.87,10.0,WNW,11.5,-,N/A,,Overcast,290,2013-04-24 02:15:00
10:35 PM,32.0,32.0,100,29.86,10.0,WNW,12.7,-,N/A,,Overcast,290,2013-04-24 02:35:00
10:55 PM,32.0,30.2,93,29.87,10.0,WNW,13.8,-,N/A,,Overcast,290,2013-04-24 02:55:00
11:15 PM,32.0,30.2,93,29.87,10.0,WNW,12.7,17.3,N/A,,Overcast,290,2013-04-24 03:15:00
11:35 PM,32.0,30.2,93,29.86,10.0,WNW,16.1,-,N/A,,Overcast,290,2013-04-24 03:35:00
11:55 PM,32.0,30.2,93,29.86,10.0,WNW,16.1,20.7,N/A,,Overcast,300,2013-04-24 03:55:00